Regional Weather Roundup
Issued by NWS Little Rock, AR

Home | Current Version | Previous Version | Graphics & Text | Print | Product List | Glossary On
Versions: 1 2 3 4 5 6 7 8 9 10 11 12 13 14 15 16 17 18 19 20 21 22 23 24 25 26 27 28 29 30 31 32
000
ASUS44 KLZK 241212
RWRLZK

WEATHER ROUNDUP FOR ARKANSAS
NATIONAL WEATHER SERVICE LITTLE ROCK AR
600 AM CST SAT FEB 24 2018

NOTE: "FAIR" INDICATES FEW OR NO CLOUDS BELOW 12,000 FEET WITH NO
SIGNIFICANT WEATHER AND/OR OBSTRUCTIONS TO VISIBILITY.

ARZ001-003-010-029-241300-
NORTHWEST ARKANSAS

CITY           SKY/WX    TMP DP  RH WIND       PRES   REMARKS
FAYETTEVILLE   CLOUDY    53  53 100 CALM      29.93S
6HR MIN TEMP:  51; 6HR MAX TEMP:  53; 6HR PCP:  0.90;

FORT SMITH     LGT RAIN  53  53 100 E3        29.95R FOG
6HR MIN TEMP:  53; 6HR MAX TEMP:  55; 6HR PCP:  0.17;

HARRISON       CLOUDY    48  48 100 SE3       29.95F FOG
6HR MIN TEMP:  46; 6HR MAX TEMP:  49;

BENTONVILLE    LGT RAIN  52  51  97 S3        29.95R
6HR MIN TEMP:  50; 6HR MAX TEMP:  52; 6HR PCP:  0.75;

ROGERS         LGT RAIN  50  50 100 CALM      29.94R
6HR MIN TEMP:  48; 6HR MAX TEMP:  51; 6HR PCP:  0.85;

SILOAM SPGS    LGT RAIN  52  52 100 SW3       29.94
6HR MIN TEMP:  51; 6HR MAX TEMP:  53; 6HR PCP:  0.64;

HIGHFILL       CLOUDY    52  52 100 CALM      29.93S
6HR MIN TEMP:  50; 6HR MAX TEMP:  52; 6HR PCP:  0.69;

SPRINGDALE     CLOUDY    52  52 100 SE3       29.94
$$

ARZ004-005-016-241300-
NORTH CENTRAL ARKANSAS

CITY           SKY/WX    TMP DP  RH WIND       PRES   REMARKS
BATESVILLE     FOG       50  50 100 CALM      29.97S VSB 1/4
6HR MIN TEMP:  49; 6HR MAX TEMP:  51; 6HR PCP:  0.14;

FLIPPIN        LGT RAIN  50  49  96 NE3       29.97S FOG
6HR MIN TEMP:  48; 6HR MAX TEMP:  50; 6HR PCP:  0.05;

MTN HOME       CLOUDY    49  49 100 E3        29.96R FOG
6HR MIN TEMP:  47; 6HR MAX TEMP:  49; 6HR PCP:  0.04;

$$

ARZ040-041-241300-
WEST CENTRAL ARKANSAS

CITY           SKY/WX    TMP DP  RH WIND       PRES   REMARKS
MENA           CLOUDY    64  64 100 SW7       29.95S
MOUNT IDA      CLOUDY    63  63 100 VRB3      29.93R
6HR MIN TEMP:  55; 6HR MAX TEMP:  63; 6HR PCP:  0.01;

$$

ARZ009-017-025-026-028-241300-
NORTHEAST ARKANSAS

CITY           SKY/WX    TMP DP  RH WIND       PRES   REMARKS
JONESBORO      CLOUDY    57  57 100 S6        29.97S FOG
6HR MIN TEMP:  53; 6HR MAX TEMP:  57; 6HR PCP: TRACE;

NEWPORT        FOG       55  54  96 SW5       29.97S VSB 1/4
6HR MIN TEMP:  51; 6HR MAX TEMP:  55; 6HR PCP:  0.02;

WALNUT RIDGE   FOG       52  52 100 N5        29.97F VSB 3/4
6HR MIN TEMP:  50; 6HR MAX TEMP:  52; 6HR PCP:  0.03;

BLYTHEVILLE    CLOUDY    61  59  93 S9        29.99F
6HR MIN TEMP:  55; 6HR MAX TEMP:  61; 6HR PCP:  0.01;

$$

ARZ022-023-033-042-044-241300-
CENTRAL ARKANSAS

CITY           SKY/WX    TMP DP  RH WIND       PRES   REMARKS
LITTLE ROCK    FOG       56  56 100 CALM      29.97S VSB 1/4
6HR MIN TEMP:  52; 6HR MAX TEMP:  56; 6HR PCP: TRACE;

N LITTLE ROCK    N/A     57  57 100 CALM      29.95S
6HR MIN TEMP:  51; 6HR MAX TEMP:  57;

JACKSONVILLE   CLOUDY    59  59 100 S7        29.96S FOG
6HR MIN TEMP:  53; 6HR MAX TEMP:  58; 6HR PCP:  0.01;

SEARCY         FOG       54  54 100 CALM      29.98R VSB 1/4
6HR MIN TEMP:  52; 6HR MAX TEMP:  54;

HOT SPRINGS    CLOUDY    62  62 100 CALM      29.97R
6HR MIN TEMP:  54; 6HR MAX TEMP:  62;

RUSSELLVILLE     N/A     53  53 100 CALM      29.95R FOG
6HR MIN TEMP:  51; 6HR MAX TEMP:  54;

CLINTON        FOG       52  52 100 CALM      29.97R VSB 1/4
$$

ARZ036-241300-
EAST ARKANSAS

CITY           SKY/WX    TMP DP  RH WIND       PRES   REMARKS
WEST MEMPHIS   CLOUDY    64  64 100 S13       29.99F
6HR MIN TEMP:  59; 6HR MAX TEMP:  65; 6HR PCP: TRACE;

$$

ARZ050-053-066-070-073-241300-
SOUTHWEST ARKANSAS

CITY           SKY/WX    TMP DP  RH WIND       PRES   REMARKS
ARKADELPHIA    CLOUDY    56  56 100 CALM      29.97S
6HR MIN TEMP:  54; 6HR MAX TEMP:  56;

CAMDEN         CLOUDY    68  63  83 S6        29.98R FOG
TEXARKANA      CLOUDY    66  65  96 S9        29.95S
6HR MIN TEMP:  62; 6HR MAX TEMP:  66;

EL DORADO      CLOUDY    67  67 100 SE6       29.99S
6HR MIN TEMP:  65; 6HR MAX TEMP:  67;

DE QUEEN       FOG       61  61 100 CALM      29.93S VSB 1/2
6HR MIN TEMP:  59; 6HR MAX TEMP:  63; 6HR PCP: TRACE;

$$

ARZ056-057-069-241300-
SOUTHEAST ARKANSAS

CITY           SKY/WX    TMP DP  RH WIND       PRES   REMARKS
PINE BLUFF     CLOUDY    64  63  96 S9        29.98S
6HR MIN TEMP:  55; 6HR MAX TEMP:  64;

STUTTGART      FOG       62  62 100 S6        29.99R VSB 1
6HR MIN TEMP:  56; 6HR MAX TEMP:  63; 6HR PCP: TRACE;

MONTICELLO     CLOUDY    68  65  90 S7        29.99F
6HR MIN TEMP:  65; 6HR MAX TEMP:  68;


$$






USA.gov is the U.S. government's official web portal to all federal, state and local government web resources and services.